Radiation Dose at Monitoring Post of Fukushima Daini Nuclear Power Station
Date,Time,MP-1(microSv/h),MP-2(microSv/h),MP-3(microSv/h),MP-4(microSv/h),MP-5(microSv/h),MP-6(microSv/h),MP-7(microSv/h),Wind Direction,Wind Velocity(m/s),Rain
2014/01/09,00:00,0.8,0.5,0.8,0.7,0.7,0.3,0.3,west,5.9,Yes
2014/01/09,00:10,0.8,0.5,0.8,0.7,0.7,0.3,0.3,north,11.4,Yes
2014/01/09,00:20,0.8,0.5,0.8,0.7,0.7,0.3,0.3,northwest,5.5,Yes
2014/01/09,00:30,0.8,0.5,0.8,0.7,0.7,0.3,0.3,northwest,9.9,Yes
2014/01/09,00:40,0.8,0.5,0.8,0.7,0.7,0.3,0.3,north-northwest,8.3,Yes
2014/01/09,00:50,0.8,0.5,0.8,0.7,0.7,0.3,0.3,north-northwest,8.4,Yes
2014/01/09,01:00,0.8,0.5,0.8,0.7,0.7,0.3,0.3,north-northwest,8.4,Yes
2014/01/09,01:10,0.8,0.5,0.8,0.7,0.7,0.3,0.3,north-northwest,8.3,Yes
2014/01/09,01:20,0.8,0.5,0.8,0.7,0.7,0.3,0.3,north-northwest,7.9,Yes
2014/01/09,01:30,0.8,0.5,0.8,0.7,0.7,0.3,0.3,north-northwest,8.2,Yes
2014/01/09,01:40,0.8,0.5,0.8,0.7,0.7,0.3,0.3,north-northwest,8.3,Yes
2014/01/09,01:50,0.8,0.5,0.8,0.7,0.7,0.3,0.3,north-northwest,7.1,Yes
2014/01/09,02:00,0.8,0.5,0.8,0.7,0.7,0.3,0.3,northwest,8.0,Yes
2014/01/09,02:10,0.8,0.5,0.8,0.7,0.7,0.3,0.3,north-northwest,7.9,Yes
2014/01/09,02:20,0.8,0.5,0.8,0.7,0.7,0.3,0.3,north-northwest,7.0,Yes
2014/01/09,02:30,0.8,0.5,0.8,0.7,0.7,0.3,0.3,north-northwest,8.5,Yes
2014/01/09,02:40,0.8,0.5,0.8,0.7,0.7,0.3,0.3,north-northwest,8.7,Yes
2014/01/09,02:50,0.8,0.5,0.8,0.7,0.7,0.3,0.3,north-northwest,8.4,Yes
2014/01/09,03:00,0.8,0.5,0.8,0.7,0.7,0.3,0.3,north-northwest,8.0,Yes
2014/01/09,03:10,0.8,0.5,0.8,0.7,0.7,0.3,0.3,north-northwest,7.7,Yes
2014/01/09,03:20,0.8,0.5,0.8,0.7,0.7,0.3,0.3,north-northwest,8.1,Yes
2014/01/09,03:30,0.8,0.5,0.8,0.7,0.7,0.3,0.3,north-northwest,8.1,Yes
2014/01/09,03:40,0.8,0.5,0.8,0.7,0.7,0.3,0.3,north-northwest,8.7,Yes
2014/01/09,03:50,0.8,0.5,0.8,0.7,0.7,0.3,0.3,north-northwest,9.0,Yes
2014/01/09,04:00,0.8,0.5,0.8,0.7,0.7,0.3,0.3,north-northwest,8.2,Yes
2014/01/09,04:10,0.8,0.5,0.8,0.7,0.7,0.3,0.3,north-northwest,8.9,Yes
2014/01/09,04:20,0.8,0.5,0.8,0.7,0.7,0.3,0.3,north-northwest,8.7,Yes
2014/01/09,04:30,0.8,0.5,0.8,0.7,0.7,0.3,0.3,north-northwest,9.6,Yes
2014/01/09,04:40,0.8,0.5,0.8,0.7,0.7,0.3,0.3,north-northwest,9.5,Yes
2014/01/09,04:50,0.8,0.5,0.8,0.7,0.7,0.3,0.3,north-northwest,8.6,Yes
2014/01/09,05:00,0.8,0.5,0.8,0.7,0.7,0.3,0.3,north-northwest,9.4,Yes
2014/01/09,05:10,0.8,0.5,0.8,0.7,0.7,0.3,0.3,north-northwest,9.5,Yes
2014/01/09,05:20,0.8,0.5,0.8,0.7,0.7,0.3,0.3,north-northwest,9.3,Yes
2014/01/09,05:30,0.8,0.5,0.8,0.7,0.7,0.3,0.3,north-northwest,8.4,Yes
2014/01/09,05:40,0.8,0.5,0.8,0.7,0.7,0.3,0.3,north-northwest,9.0,Yes
2014/01/09,05:50,0.8,0.5,0.8,0.7,0.7,0.3,0.3,north-northwest,9.0,No
2014/01/09,06:00,0.8,0.5,0.8,0.7,0.7,0.3,0.3,north-northwest,9.2,Yes
2014/01/09,06:10,0.8,0.5,0.8,0.7,0.7,0.3,0.3,north-northwest,8.8,Yes
2014/01/09,06:20,0.8,0.5,0.8,0.7,0.7,0.3,0.3,north-northwest,9.6,Yes
2014/01/09,06:30,0.8,0.5,0.8,0.7,0.7,0.3,0.3,north-northwest,8.4,Yes
2014/01/09,06:40,0.8,0.5,0.8,0.7,0.7,0.3,0.3,north,9.0,Yes
2014/01/09,06:50,0.8,0.5,0.8,0.7,0.7,0.3,0.3,north-northwest,8.4,Yes
2014/01/09,07:00,0.8,0.5,0.8,0.7,0.7,0.3,0.3,north-northwest,9.2,Yes
2014/01/09,07:10,0.8,0.5,0.8,0.7,0.7,0.3,0.3,north-northwest,8.5,Yes
2014/01/09,07:20,0.8,0.5,0.8,0.7,0.7,0.3,0.3,north,8.2,Yes
2014/01/09,07:30,0.8,0.5,0.8,0.7,0.7,0.3,0.3,north-northwest,8.4,Yes
2014/01/09,07:40,0.8,0.5,0.8,0.7,0.7,0.3,0.3,north-northwest,8.4,Yes
2014/01/09,07:50,0.8,0.5,0.8,0.7,0.7,0.3,0.3,north-northwest,8.4,Yes
2014/01/09,08:00,0.8,0.5,0.8,0.7,0.7,0.3,0.3,north-northwest,9.9,Yes
2014/01/09,08:10,0.8,0.5,0.8,0.7,0.7,0.3,0.3,north-northwest,9.1,Yes
2014/01/09,08:20,0.8,0.5,0.8,0.7,0.7,0.3,0.3,north-northwest,8.9,Yes
2014/01/09,08:30,0.8,0.5,0.8,0.7,0.7,0.3,0.3,north,8.7,Yes
2014/01/09,08:40,0.8,0.5,0.8,0.7,0.7,0.3,0.3,north-northwest,8.6,Yes
2014/01/09,08:50,0.8,0.5,0.8,0.7,0.7,0.3,0.3,north,9.5,Yes
2014/01/09,09:00,0.8,0.5,0.8,0.7,0.7,0.3,0.3,north-northwest,9.3,Yes
2014/01/09,09:10,0.8,0.5,0.8,0.7,0.7,0.3,0.3,north-northwest,9.2,Yes
2014/01/09,09:20,0.8,0.5,0.8,0.7,0.7,0.3,0.3,north,10.7,Yes
2014/01/09,09:30,0.8,0.5,0.8,0.7,0.7,0.3,0.3,north-northwest,8.1,Yes
2014/01/09,09:40,0.8,0.5,0.8,0.7,0.7,0.3,0.3,north-northwest,7.6,No
2014/01/09,09:50,0.8,0.5,0.8,0.7,0.7,0.3,0.3,north-northwest,7.5,No
2014/01/09,10:00,0.8,0.5,0.8,0.7,0.7,0.3,0.3,north,6.7,No
2014/01/09,10:10,0.8,0.5,0.8,0.7,0.7,0.3,0.3,north,7.3,No
2014/01/09,10:20,0.8,0.5,0.8,0.7,0.7,0.3,0.3,north-northeast,7.0,No
2014/01/09,10:30,0.8,0.5,0.8,0.7,0.7,0.3,0.3,north,5.2,No
2014/01/09,10:40,0.8,0.5,0.8,0.7,0.7,0.3,0.3,north,3.9,No
2014/01/09,10:50,0.8,0.5,0.8,0.7,0.7,0.3,0.3,north-northeast,5.3,No
2014/01/09,11:00,0.8,0.5,0.8,0.7,0.7,0.3,0.3,north-northeast,6.7,No
2014/01/09,11:10,0.8,0.5,0.8,0.7,0.7,0.3,0.3,north,5.6,No
2014/01/09,11:20,0.8,0.5,0.8,0.7,0.7,0.3,0.3,north,5.3,No
2014/01/09,11:30,0.8,0.5,0.8,0.7,0.7,0.3,0.3,north,6.1,No
2014/01/09,11:40,0.8,0.5,0.8,0.7,0.7,0.3,0.3,north,5.7,No
2014/01/09,11:50,0.8,0.5,0.8,0.7,0.7,0.3,0.3,north,5.2,No
2014/01/09,12:00,0.8,0.5,0.8,0.7,0.7,0.3,0.3,north,5.4,No
2014/01/09,12:10,0.8,0.5,0.8,0.7,0.7,0.3,0.3,north,5.0,No
2014/01/09,12:20,0.8,0.5,0.8,0.7,0.7,0.3,0.3,north,7.9,No
2014/01/09,12:30,0.8,0.5,0.8,0.7,0.7,0.3,0.3,north,6.8,No
2014/01/09,12:40,0.8,0.5,0.8,0.7,0.7,0.3,0.3,north-northwest,6.1,No
2014/01/09,12:50,0.8,0.5,0.8,0.7,0.7,0.3,0.3,north,7.2,No
2014/01/09,13:00,0.8,0.5,0.8,0.7,0.7,0.3,0.3,north,5.7,No
2014/01/09,13:10,0.8,0.5,0.8,0.7,0.7,0.3,0.3,north-northwest,5.0,No
2014/01/09,13:20,0.8,0.5,0.8,0.7,0.7,0.3,0.3,north-northwest,4.7,No
2014/01/09,13:30,0.8,0.5,0.8,0.7,0.7,0.3,0.3,north-northwest,3.9,No
2014/01/09,13:40,0.8,0.5,0.8,0.7,0.7,0.3,0.3,north-northwest,4.4,No
2014/01/09,13:50,0.8,0.5,0.8,0.7,0.7,0.3,0.3,north,6.2,No
2014/01/09,14:00,0.8,0.5,0.8,0.7,0.7,0.3,0.3,north,5.1,No
2014/01/09,14:10,0.8,0.5,0.8,0.7,0.7,0.3,0.3,north,3.4,No
2014/01/09,14:20,0.8,0.5,0.8,0.7,0.7,0.3,0.3,north,4.4,No
2014/01/09,14:30,0.8,0.5,0.8,0.7,0.7,0.3,0.3,north,5.7,No
2014/01/09,14:40,0.8,0.5,0.8,0.7,0.7,0.3,0.3,north,4.6,No
2014/01/09,14:50,0.8,0.5,0.8,0.7,0.7,0.3,0.3,north,6.1,No
2014/01/09,15:00,0.8,0.5,0.8,0.7,0.7,0.3,0.3,north-northeast,5.6,No
2014/01/09,15:10,0.8,0.5,0.8,0.7,0.7,0.3,0.3,north,5.9,No
2014/01/09,15:20,0.8,0.5,0.8,0.7,0.7,0.3,0.3,north,3.4,No
2014/01/09,15:30,0.8,0.5,0.8,0.7,0.7,0.3,0.3,north-northwest,6.5,No
2014/01/09,15:40,0.8,0.5,0.8,0.7,0.7,0.3,0.3,north-northwest,3.3,No
2014/01/09,15:50,0.8,0.5,0.8,0.7,0.7,0.3,0.3,north-northwest,3.6,No
2014/01/09,16:00,0.8,0.5,0.8,0.7,0.7,0.3,0.3,north-northwest,2.8,No
2014/01/09,16:10,0.8,0.5,0.8,0.7,0.7,0.3,0.3,north,3.2,No
2014/01/09,16:20,0.8,0.5,0.8,0.7,0.7,0.3,0.3,north,4.4,No
2014/01/09,16:30,0.8,0.5,0.8,0.7,0.7,0.3,0.3,north,5.7,No
2014/01/09,16:40,0.8,0.5,0.8,0.7,0.7,0.3,0.3,north,8.7,No
2014/01/09,16:50,0.8,0.5,0.8,0.7,0.7,0.3,0.3,north-northwest,6.2,No
2014/01/09,17:00,0.8,0.5,0.8,0.7,0.7,0.3,0.3,northwest,4.1,No
2014/01/09,17:10,0.8,0.5,0.8,0.7,0.7,0.3,0.3,west-northwest,2.8,No
2014/01/09,17:20,0.8,0.5,0.8,0.7,0.7,0.3,0.3,north-northwest,3.9,No
2014/01/09,17:30,0.8,0.5,0.8,0.7,0.7,0.3,0.3,north,3.5,No
2014/01/09,17:40,0.8,0.5,0.8,0.7,0.7,0.3,0.3,north,2.8,No
2014/01/09,17:50,0.8,0.5,0.8,0.7,0.7,0.3,0.3,north-northwest,5.3,No
2014/01/09,18:00,0.8,0.5,0.8,0.7,0.7,0.3,0.3,north-northwest,6.7,No
2014/01/09,18:10,0.8,0.5,0.8,0.7,0.7,0.3,0.3,north,7.1,No
2014/01/09,18:20,0.8,0.5,0.8,0.7,0.7,0.3,0.3,north,8.0,No
2014/01/09,18:30,0.8,0.5,0.8,0.7,0.7,0.3,0.3,north-northwest,7.0,No
2014/01/09,18:40,0.8,0.5,0.8,0.7,0.7,0.3,0.3,north,6.2,No
2014/01/09,18:50,0.8,0.5,0.8,0.7,0.7,0.3,0.3,north-northwest,4.5,No
2014/01/09,19:00,0.8,0.5,0.8,0.7,0.7,0.3,0.3,north,6.3,No
2014/01/09,19:10,0.8,0.5,0.8,0.7,0.7,0.3,0.3,north,5.2,No
2014/01/09,19:20,0.8,0.5,0.8,0.7,0.7,0.3,0.3,north,6.2,No
2014/01/09,19:30,0.8,0.5,0.8,0.7,0.7,0.3,0.3,north,5.2,No
2014/01/09,19:40,0.8,0.5,0.8,0.7,0.7,0.3,0.3,north,5.5,No
2014/01/09,19:50,0.8,0.5,0.8,0.7,0.7,0.3,0.3,north-northwest,6.4,No
2014/01/09,20:00,0.8,0.5,0.8,0.7,0.7,0.3,0.3,north,5.8,No
2014/01/09,20:10,0.8,0.5,0.8,0.7,0.7,0.3,0.3,north,4.8,No
2014/01/09,20:20,0.8,0.5,0.8,0.7,0.7,0.3,0.3,north,5.0,No
2014/01/09,20:30,0.8,0.5,0.8,0.7,0.7,0.3,0.3,north-northwest,2.4,No
2014/01/09,20:40,0.8,0.5,0.8,0.7,0.7,0.3,0.3,north,1.0,No
2014/01/09,20:50,0.8,0.5,0.8,0.7,0.7,0.3,0.3,north,3.7,No
2014/01/09,21:00,0.8,0.5,0.8,0.7,0.7,0.3,0.3,west-northwest,5.5,No
2014/01/09,21:10,0.8,0.5,0.8,0.7,0.7,0.3,0.3,west-northwest,8.6,No
2014/01/09,21:20,0.8,0.5,0.8,0.7,0.7,0.3,0.3,north-northwest,4.1,No
2014/01/09,21:30,0.8,0.5,0.8,0.7,0.7,0.3,0.3,north,2.8,No
2014/01/09,21:40,0.8,0.5,0.8,0.7,0.7,0.3,0.3,north-northwest,3.0,No
2014/01/09,21:50,0.8,0.5,0.8,0.7,0.7,0.3,0.3,north-northwest,4.6,No
2014/01/09,22:00,0.8,0.5,0.8,0.7,0.7,0.3,0.3,north-northeast,4.1,No
2014/01/09,22:10,0.8,0.5,0.8,0.7,0.7,0.3,0.3,north,2.9,No
2014/01/09,22:20,0.8,0.5,0.8,0.7,0.7,0.3,0.3,north,3.1,No
2014/01/09,22:30,0.8,0.5,0.8,0.7,0.7,0.3,0.3,north,3.1,No
2014/01/09,22:40,0.8,0.5,0.8,0.7,0.7,0.3,0.3,north,2.7,No
2014/01/09,22:50,0.8,0.5,0.8,0.7,0.7,0.3,0.3,north,4.0,No
2014/01/09,23:00,0.8,0.5,0.8,0.7,0.7,0.3,0.3,north,5.5,No
2014/01/09,23:10,0.8,0.5,0.8,0.7,0.7,0.3,0.3,north,4.1,No
2014/01/09,23:20,0.8,0.5,0.8,0.7,0.7,0.3,0.3,north,3.8,No
2014/01/09,23:30,0.8,0.5,0.8,0.7,0.7,0.3,0.3,north,3.3,No
2014/01/09,23:40,0.8,0.5,0.8,0.7,0.7,0.3,0.3,north,3.2,No
2014/01/09,23:50,0.8,0.5,0.8,0.7,0.7,0.3,0.3,north,5.8,No
